Montgomery, NY

1:03 AM EDT on May 01, 2017 (GMT -0400)
Orange County

Weather History for KMGJ - January, 2014

Change the Weather History Date:

Wednesday, January 8, 2014

  Actual Average (KSWF) Record (KSWF)
Temperature  
Mean Temperature 12 °F -  
Max Temperature 21 °F 34 °F 64 °F (2008)
Min Temperature 3 °F 19 °F 0 °F (1986)
Degree Days  
Heating Degree Days 53    
Moisture  
Dew Point -1 °F    
Average Humidity 57    
Maximum Humidity 69    
Minimum Humidity 40    
Precipitation  
Precipitation 0.00 in - - ()
Sea Level Pressure  
Sea Level Pressure 30.45 in    
Wind  
Wind Speed 7 mph (SW)    
Max Wind Speed 13 mph    
Max Gust Speed -    
Visibility 10 miles    
Events      
Averages and records for this station are not official NWS values.
T = Trace of Precipitation, MM = Missing Value Source: NWS Daily Summary

Daily Weather History Graph

Daily Weather History Graph

Search for Another Location

Airport or City:

Trip Planner

Search our weather history database for the weather conditions in past years. The results will help you decide how hot, cold, wet, or windy it might be!

Date:

Astronomy

Jan. 08, 2014 Rise Set
Actual Time 7:23 AM EST 4:44 PM EST
Civil Twilight 6:52 AM EST 5:15 PM EST
Nautical Twilight 6:17 AM EST 5:50 PM EST
Astronomical Twilight 5:44 AM EST 6:23 PM EST
Moon 11:38 AM EST (1/8) 12:23 AM EST (1/8)
Length of Visible Light 10h 23m
Length of Day
9h 21m
First Quarter, 56% of the Moon is Illuminated
Jan 8
First Quarter
Jan 15
Full
Jan 24
Last Quarter
Jan 30
New
Feb 6
First Quarter

Hourly Weather History & Observations

Time (EST) Temp. Windchill Dew Point Humidity Pressure Visibility Wind Dir Wind Speed Gust Speed Precip Events Conditions
12:54 AM 3.9 °F -8.2 °F -7.1 °F 60% 30.35 in 10.0 mi WSW 6.9 mph - N/A   Clear
1:54 AM 3.9 °F -9.4 °F -6.0 °F 64% 30.39 in 10.0 mi SW 8.1 mph - N/A   Clear
2:54 AM 3.9 °F -6.9 °F -6.0 °F 64% 30.41 in 10.0 mi SW 5.8 mph - N/A   Clear
3:54 AM 3.9 °F -8.2 °F -6.0 °F 64% 30.42 in 10.0 mi WSW 6.9 mph - N/A   Clear
4:54 AM 3.9 °F -10.4 °F -5.1 °F 66% 30.43 in 10.0 mi SW 9.2 mph - N/A   Clear
5:54 AM 3.0 °F -8.0 °F -5.1 °F 69% 30.43 in 10.0 mi South 5.8 mph - N/A   Clear
6:54 AM 3.9 °F -5.3 °F -5.1 °F 66% 30.45 in 10.0 mi SW 4.6 mph - N/A   Clear
7:54 AM 3.9 °F - -5.1 °F 66% 30.47 in 10.0 mi Calm Calm - N/A   Clear
8:54 AM 8.1 °F -4.3 °F -2.9 °F 61% 30.51 in 10.0 mi SW 8.1 mph - N/A   Clear
9:54 AM 12.0 °F 1.5 °F -2.9 °F 51% 30.51 in 10.0 mi West 6.9 mph - N/A   Clear
10:54 AM 12.9 °F -0.2 °F -2.0 °F 51% 30.50 in 10.0 mi WSW 10.4 mph - N/A   Clear
11:54 AM 16.0 °F 2.3 °F -0.9 °F 47% 30.47 in 10.0 mi WSW 12.7 mph - N/A   Clear
12:54 PM 18.0 °F 12.7 °F -0.9 °F 44% 30.44 in 10.0 mi Variable 3.5 mph - N/A   Clear
1:54 PM 19.0 °F 6.8 °F -0.0 °F 43% 30.43 in 10.0 mi WSW 11.5 mph - N/A   Clear
2:54 PM 21.0 °F 9.9 °F -0.0 °F 40% 30.43 in 10.0 mi WSW 10.4 mph - N/A   Clear
3:54 PM 19.9 °F 10.1 °F -0.9 °F 40% 30.44 in 10.0 mi WSW 8.1 mph - N/A   Clear
4:54 PM 19.0 °F 13.9 °F -0.0 °F 43% 30.45 in 10.0 mi West 3.5 mph - N/A   Clear
5:54 PM 17.1 °F 10.0 °F 3.0 °F 54% 30.45 in 10.0 mi West 4.6 mph - N/A   Clear
6:54 PM 15.1 °F 5.2 °F 3.9 °F 61% 30.49 in 10.0 mi SSW 6.9 mph - N/A   Clear
7:54 PM 15.1 °F 6.4 °F 3.0 °F 59% 30.48 in 10.0 mi SSW 5.8 mph - N/A   Scattered Clouds
8:54 PM 15.1 °F 5.2 °F 3.0 °F 59% 30.50 in 10.0 mi SW 6.9 mph - N/A   Partly Cloudy
9:54 PM 14.0 °F 6.5 °F 3.9 °F 64% 30.49 in 10.0 mi SSW 4.6 mph - N/A   Mostly Cloudy
10:54 PM 14.0 °F 8.2 °F 5.0 °F 67% 30.49 in 10.0 mi SSW 3.5 mph - N/A   Overcast
11:54 PM 14.0 °F 5.1 °F 5.0 °F 67% 30.48 in 10.0 mi SW 5.8 mph - N/A   Mostly Cloudy